Probability
2 1 0 0 0 0 0 0 0 0 0 0 0 0 0 0 0 0 0 0 0 0 0 0 0 0 0 0 0 0 0 0 0 0 0 0 0 0 0 0 0 0 0
1 1 0 0 0 0 0 0 0 0 0 0 0 0 0 0 0 0 0 0 0 0 0 0 0 0 0 0 0 0 0 0 0 0 0 0 0 0 0 0 0 0 0
0 0 0 0 0 0 0 0 0 0 0 0 0 0 0 0 0 0 0 0 0 0 0 0 0 0 0 0 0 0 0 0 0 0 0 0 0 0 0 0 0 0 0
0 0 0 0 0 0 0 0 0 0 0 0 0 0 0 0 0 0 0 0 0 0 0 0 0 0 0 0 0 0 0 0 0 0 0 0 0 0 0 0 0 0 0
0 0 0 0 0 0 0 0 0 0 0 0 0 0 0 0 0 0 0 0 0 0 0 0 0 0 0 0 0 0 0 0 0 0 0 0 0 0 0 0 0 0 0
0 0 0 0 0 0 0 0 0 0 0 0 0 0 0 0 0 0 0 0 0 0 0 0 0 0 0 0 0 0 0 0 0 0 0 0 0 0 0 0 0 0 0
0 0 0 0 0 0 0 0 0 0 0 0 0 0 0 0 0 0 0 0 0 0 0 0 0 0 0 0 0 0 0 0 0 0 0 0 0 0 0 0 0 0 0
0 0 0 0 0 0 0 0 0 0 0 0 0 0 0 0 0 0 0 0 0 0 0 0 0 0 0 0 0 0 0 0 0 0 0 0 0 0 0 0 0 0 0
0 0 0 0 0 0 0 0 0 0 0 0 0 0 0 0 0 0 0 0 0 0 0 0 0 0 0 0 0 0 0 0 0 0 0 0 0 0 0 0 0 0 0
0 0 0 0 0 0 0 0 0 0 0 0 0 0 0 0 0 0 0 0 0 0 0 0 0 0 0 0 0 0 0 0 0 0 0 0 0 0 0 0 0 0 0
0 0 0 0 0 0 0 0 0 0 0 0 0 0 0 0 0 0 0 0 0 0 0 0 0 0 0 0 0 0 0 0 0 0 0 0 0 0 0 0 0 0 0
0 0 0 0 0 0 0 0 0 0 0 0 0 0 0 0 0 0 0 0 0 0 0 0 0 0 0 0 0 0 0 0 0 0 0 0 0 0 0 0 0 0 0
0 0 0 0 0 0 0 0 0 0 0 0 0 0 0 0 0 0 0 0 0 0 0 0 0 0 0 0 0 0 0 0 0 0 0 0 0 0 0 0 0 0 0
0 0 0 0 0 0 0 0 0 0 0 0 0 0 0 0 0 0 0 0 0 0 0 0 0 0 0 0 0 0 0 0 0 0 0 0 0 0 0 0 0 0 0
0 0 0 0 0 0 0 0 0 0 0 0 0 0 0 0 0 0 0 0 0 0 0 0 0 0 0 0 0 0 0 0 0 0 0 0 0 0 0 0 0 0 0
0 0 0 0 0 0 0 0 0 0 0 0 0 0 0 0 0 0 0 0 0 0 0 0 0 0 0 0 0 0 0 0 0 0 0 0 0 0 0 0 0 0 0
0 0 0 0 0 0 0 0 0 0 0 0 0 0 0 0 0 0 0 0 0 0 0 0 0 0 0 0 0 0 0 0 0 0 0 0 0 0 0 0 0 0 0
0 0 0 0 0 0 0 0 0 0 0 0 0 0 0 0 0 0 0 0 0 0 0 0 0 0 0 0 0 0 0 0 0 0 0 0 0 0 0 0 0 0 0
0 0 0 0 0 0 0 0 0 0 0 0 0 0 0 0 0 0 0 0 0 0 0 0 0 0 0 0 0 0 0 0 0 0 0 0 0 0 0 0 0 0 0
0 0 0 0 0 0 0 0 0 0 0 0 0 0 0 0 0 0 0 0 0 0 0 0 0 0 0 0 0 0 0 0 0 0 0 0 0 0 0 0 0 0 0
0 0 0 0 0 0 0 0 0 0 0 0 0 0 0 0 0 0 0 0 0 0 0 0 0 0 0 0 0 0 0 0 0 0 0 0 0 0 0 0 0 0 0
0 0 0 0 0 0 0 0 0 0 0 0 0 0 0 0 0 0 0 0 0 0 0 0 0 0 0 0 0 0 0 0 0 0 0 0 0 0 0 0 0 0 0
0 0 0 0 0 0 0 0 0 0 0 0 0 0 0 0 0 0 0 0 0 0 0 0 0 0 0 0 0 0 0 0 0 0 0 0 0 0 0 0 0 0 0
0 0 0 0 0 0 0 0 0 0 0 0 0 0 0 0 0 0 0 0 0 0 0 0 0 0 0 0 0 0 0 0 0 0 0 0 0 0 0 0 0 0 0
0 0 0 0 0 0 0 0 0 0 0 0 0 0 0 0 0 0 0 0 0 0 0 0 0 0 0 0 0 0 0 0 0 0 0 0 0 0 0 0 0 0 0
0 0 0 0 0 0 0 0 0 0 0 0 0 0 0 0 0 0 0 0 0 0 0 0 0 0 0 0 0 0 0 0 0 0 0 0 0 0 0 0 0 0 0
Wind_Speed
1 1 1 2 2 1 1 1 1 2 1 1 1 2 3 3 3 3 2 3 6 8 9 11 11 10 8 6 4 4 3 3 2 2 3 5 5 6 6 6 5 6 6
3 3 3 3 2 2 2 1 2 1 1 2 2 3 3 4 3 4 4 3 3 6 8 9 10 11 11 9 7 6 5 4 2 1 2 3 4 5 5 5 5 5 5
7 6 5 4 4 3 3 3 3 2 2 2 3 3 3 4 4 5 5 4 4 4 6 8 10 11 12 12 10 7 7 5 4 3 2 3 4 5 5 5 5 5 4
10 8 7 6 6 5 4 4 3 2 2 2 3 3 3 3 5 5 4 4 4 4 5 7 10 11 12 12 12 11 8 7 6 5 4 3 4 6 6 6 6 6 6
11 9 8 7 6 5 5 4 4 3 3 3 3 3 3 3 4 4 5 5 5 5 5 6 8 8 11 12 13 13 12 9 8 8 7 6 6 7 8 8 8 8 8
12 10 8 9 8 7 6 5 5 5 4 5 4 4 3 3 2 3 4 3 3 5 5 6 6 5 8 12 13 13 14 13 11 10 10 9 9 8 9 9 10 10 10
13 11 9 10 9 9 9 9 6 6 6 6 4 4 2 1 2 3 3 3 4 5 5 6 6 6 6 10 12 14 15 15 15 13 11 11 11 11 10 11 11 11 11
13 11 12 10 10 9 11 11 9 6 6 7 6 5 4 1 3 3 3 4 5 5 6 7 8 7 7 6 9 14 15 16 17 17 15 14 13 13 12 12 12 13 13
14 13 13 11 11 10 10 12 11 11 8 8 8 7 5 5 7 3 4 4 6 7 8 8 9 9 9 7 7 10 13 16 17 18 18 17 16 15 15 15 14 14 14
13 13 13 12 12 10 11 10 11 9 9 7 6 6 5 5 6 7 4 5 8 9 9 9 9 9 9 8 7 11 13 15 16 17 18 19 19 19 18 17 17 16 16
11 12 11 11 10 9 10 10 10 10 8 8 6 5 5 4 4 5 8 9 9 7 8 10 9 8 8 8 8 10 14 16 16 17 18 18 19 20 21 21 20 19 18
8 10 10 9 9 8 8 8 8 9 7 7 5 5 5 4 6 6 9 11 11 9 10 7 7 7 8 8 9 11 15 17 17 18 18 18 19 20 21 22 22 22 20
6 8 7 7 7 7 7 6 6 6 7 6 5 4 4 4 5 6 9 10 13 11 9 6 5 7 7 6 6 10 13 16 18 19 19 19 19 20 20 22 23 23 22
5 6 6 6 6 6 6 5 4 5 5 5 6 6 5 5 5 6 7 9 12 11 11 12 8 7 6 6 9 16 12 14 17 19 20 20 20 20 21 21 22 23 23
4 5 5 5 5 5 5 5 4 5 5 5 6 6 5 5 5 6 7 7 9 13 14 13 10 7 7 9 13 12 13 15 18 20 21 21 21 21 21 22 22 23 24
4 4 4 4 4 4 5 5 4 5 6 6 5 7 7 6 6 7 7 8 8 11 14 11 12 13 14 12 14 14 14 17 19 20 20 21 22 22 22 22 23 24 24
4 3 2 3 3 4 5 5 5 6 7 7 7 8 9 9 8 7 8 8 9 10 14 15 12 13 17 17 14 13 13 14 12 17 20 21 22 22 23 23 23 24 25
3 2 1 2 3 4 5 5 6 6 7 8 9 9 10 8 11 9 9 10 10 11 13 18 15 13 16 16 16 16 14 12 13 18 22 23 23 23 23 23 24 24 24
3 2 0 1 2 4 4 5 6 7 8 8 9 10 10 11 11 10 11 11 11 11 12 15 17 14 13 13 16 15 16 13 13 14 19 21 22 22 22 23 23 23 22
4 2 1 1 2 4 4 5 6 7 8 9 9 10 10 11 12 13 11 12 12 13 13 14 15 14 13 13 13 13 13 11 11 11 14 16 19 22 23 24 23 21 21
4 2 2 2 3 4 4 6 7 8 9 10 10 10 10 13 15 14 12 13 13 12 12 13 14 14 13 12 12 12 14 13 13 12 12 11 11 11 12 15 17 18 21
4 4 4 4 4 4 6 9 9 9 9 10 11 10 11 12 14 17 20 19 18 15 14 14 14 15 16 15 13 12 13 14 14 9 11 12 11 12 11 11 15 19 20
5 5 5 5 5 6 8 10 11 10 10 9 10 10 10 10 14 13 16 19 18 20 21 18 18 18 17 16 16 16 15 16 16 13 14 16 13 15 13 14 22 24 24
6 5 5 5 6 6 9 11 12 10 9 9 10 11 13 13 13 16 16 16 16 16 19 16 17 18 18 17 17 17 18 18 18 14 14 16 13 14 13 14 22 26 27
6 6 5 6 6 7 9 11 11 8 8 10 10 12 13 14 19 22 19 18 18 17 20 24 27 27 29 30 25 16 15 15 16 13 12 14 14 14 14 14 16 25 27
6 5 6 6 7 7 9 11 10 6 8 9 9 11 14 17 21 24 19 18 19 18 17 18 20 22 21 21 25 19 15 14 15 14 10 11 12 11 12 10 10 10 14
Wind_Direction
174 150 135 143 152 146 166 163 181 180 179 135 53 15 10 4 350 337 337 353 342 344 343 339 330 321 307 284 276 282 282 295 317 348 5 8 8 10 13 16 18 22 27
49 68 67 61 58 56 45 37 25 10 11 8 357 354 342 340 335 328 327 323 320 334 337 337 335 332 326 309 285 268 266 270 250 286 340 356 358 357 359 1 3 4 9
49 60 63 55 48 54 63 62 49 36 29 3 340 334 322 317 314 315 318 321 323 326 331 336 337 336 333 329 313 286 263 247 241 232 274 314 326 328 327 329 333 337 333
49 56 56 49 48 52 51 52 39 29 23 356 330 317 299 295 295 305 309 317 324 328 329 343 338 336 333 330 324 314 286 256 238 224 235 265 294 303 304 300 300 302 305
50 58 56 49 49 53 48 47 42 28 12 352 322 298 286 284 300 307 314 324 330 330 329 337 333 328 331 330 326 320 311 276 244 232 232 242 265 283 289 287 286 285 288
48 56 58 50 47 48 41 35 43 36 18 342 313 297 297 312 320 334 339 345 348 345 338 337 327 327 325 326 324 319 315 306 283 258 240 241 250 262 274 277 277 276 277
49 51 54 50 47 48 41 31 27 31 24 353 328 323 321 26 37 33 19 19 27 14 357 349 341 334 325 324 319 318 313 308 305 294 271 256 251 251 257 266 269 269 269
52 53 53 52 47 48 43 35 29 25 29 18 357 332 332 336 47 15 22 20 15 6 1 356 345 332 323 319 315 313 311 307 303 303 301 288 272 259 254 257 261 264 265
57 58 57 57 51 49 45 38 31 32 28 30 27 7 348 343 331 323 358 356 360 351 345 340 331 324 317 310 307 310 311 308 304 300 296 295 289 280 267 258 255 256 260
57 57 58 58 55 52 48 42 38 33 32 27 25 24 14 340 324 320 319 341 346 332 330 328 322 319 315 310 303 299 306 308 305 300 295 291 286 281 275 269 259 252 253
58 56 56 57 55 52 48 44 41 38 35 32 23 8 1 347 346 312 312 323 323 323 325 319 312 313 317 313 310 318 320 314 309 303 297 291 286 280 275 271 265 257 250
65 58 58 57 55 52 45 41 40 40 33 29 23 17 3 344 337 319 309 314 315 317 316 304 304 315 316 312 314 328 322 317 313 309 303 297 289 283 276 272 266 260 252
72 60 58 57 53 48 43 36 35 31 24 17 9 354 341 326 316 307 303 307 306 308 306 295 290 302 302 305 314 330 313 311 311 310 307 301 294 286 279 273 268 262 256
83 75 66 61 54 44 35 26 25 19 4 355 348 338 320 314 310 303 301 305 303 299 296 296 301 290 287 302 310 314 304 301 303 304 303 300 296 290 283 275 269 264 258
99 85 71 60 47 36 22 10 6 0 345 338 330 325 315 309 305 300 295 291 292 298 298 300 300 291 296 300 301 300 299 297 298 296 294 293 292 290 286 281 273 266 260
108 93 72 52 34 20 7 358 347 344 335 330 322 316 314 309 303 296 291 288 282 283 287 292 294 295 298 293 293 292 290 292 287 285 286 287 287 286 284 281 277 271 264
120 100 66 36 17 4 354 345 341 333 327 322 320 316 312 310 305 301 296 289 284 282 283 289 290 293 294 293 293 290 288 287 285 281 282 282 283 282 281 278 276 273 268
135 114 72 19 2 348 341 335 329 325 321 319 320 316 314 314 308 303 299 295 291 287 286 291 293 293 292 294 294 291 288 284 280 281 281 281 281 279 277 275 272 270 267
155 149 169 342 335 330 324 322 319 315 314 312 312 311 311 311 307 306 304 299 295 293 289 288 291 293 292 292 293 291 289 284 280 278 279 279 278 277 275 274 271 268 265
177 183 203 278 302 306 303 309 308 307 306 305 305 304 304 304 305 306 302 299 299 298 294 290 290 293 294 295 293 293 293 292 290 290 284 280 279 278 275 272 270 268 263
185 196 219 247 272 282 288 303 306 305 304 303 301 300 299 300 298 296 295 300 301 297 296 293 292 294 295 299 298 301 297 298 294 292 286 281 280 276 276 272 265 261 262
192 204 220 237 257 264 283 296 303 303 300 297 300 301 299 293 295 298 297 296 294 293 293 291 289 289 294 298 300 297 297 295 294 298 300 295 295 287 283 278 276 275 272
199 212 224 234 250 264 280 293 300 299 293 291 294 296 296 296 297 295 297 297 294 288 284 284 285 287 291 293 294 292 288 287 286 292 294 287 286 281 281 279 277 273 270
204 215 223 235 250 259 278 292 298 292 286 285 287 290 292 294 296 298 296 292 289 286 283 280 277 280 282 283 281 282 283 283 283 280 278 280 283 280 279 274 273 269 267
208 216 222 231 246 262 277 288 292 289 283 285 286 286 288 291 294 298 298 296 293 289 287 282 278 277 277 278 278 279 279 281 283 282 280 281 287 287 282 275 270 268 266
210 217 227 233 245 257 271 281 289 283 284 287 287 286 286 292 298 301 299 296 294 295 296 293 287 283 279 277 275 270 271 273 278 284 278 274 285 298 291 275 272 275 273